Hourly Weather Roundup
Issued by NWS Central Illinois

Home | Current Version | Previous Version | Text Only | Print | Product List | Glossary On
Versions: 1 2 3 4 5 6 7 8 9 10 11 12 13 14 15 16 17 18 19 20 21 22 23 24 25 26 27 28 29 30 31 32 33 34 35 36 37 38 39 40 41 42 43 44 45 46 47 48 49 50
000
NZUS43 KILX 270910
HWRILX

Area Weather Roundup
National Weather Service Lincoln IL
400 AM CDT THU JUL 27 2017

NOTE:  "FAIR" indicates few or no clouds below 12,000 feet, with
       no sigificant weather and/or obstructions to visibility.


CITY           SKY/WX    TMP DP  RH WIND       PRES   REMARKS
Bloomington    CLOUDY    71  71 100 SW5       29.94R
Champaign      CLOUDY    72  71  97 S8        29.94S
Danville       MOCLDY    70  70 100 SE5       29.92R FOG
Decatur        CLOUDY    74  72  93 SW6       29.93S
Effingham      HVY RAIN  72  72 100 SE3       29.98S
Flora          HVY RAIN  74  73  96 NE8       29.96R
Galesburg      CLOUDY    71  71 100 CALM      29.94S
Jacksonville   CLOUDY    74  73  97 S5        29.94R
Lacon          CLOUDY    71  71 100 CALM      29.91S
Lawrenceville  LGT RAIN  73  32  22 CALM      29.96F
Litchfield     TSTM      72  72  99 NE5       29.97R VSB 3/4
$$


CITY           SKY/WX    TMP DP  RH WIND       PRES   REMARKS
Lincoln        CLOUDY    74  74 100 CALM      29.92S
Macomb         CLOUDY    73  73  99 CALM      29.95S FOG
Mattoon        LGT RAIN  73  73 100 SW8       29.95S
Mt Carmel AP   RAIN      72  71  96 S3        29.96F
Olney-Noble AP CLOUDY    72  70  93 NW8       29.98R
Paris AP       LGT RAIN  72  72 100 SW6       29.96S
Peoria         FOG       73  73 100 W3        29.92S VSB 3/4
Pontiac        MOCLDY    70  69  98 CALM      29.93S FOG
Rantoul        CLOUDY    74  73  98 CALM      29.93S
Robinson       CLOUDY    72  72  99 CALM      29.96S
Springfield    CLOUDY    75  75 100 S5        29.94R
Taylorville    CLOUDY    73  73 100 S7        29.95R
$$

...REGIONAL REPORTS...


CITY           SKY/WX    TMP DP  RH WIND       PRES   REMARKS
Chicago O`Hare CLOUDY    74  70  87 N8        29.90R
Kankakee       CLOUDY    72  70  94 CALM      29.93R
Moline         MOCLDY    73  70  90 NW6       29.92S
Mount Sterling CLOUDY    73  73  98 S3        29.93S FOG
Mount Vernon   LGT RAIN  75  73  93 NE6       29.94F
Pittsfield     RAIN      74  74  98 CALM      29.95F
Quincy         CLOUDY    76  74  93 SE6       29.93S
Rockford       CLOUDY    73  71  93 N3        29.93S
$$


CITY           SKY/WX    TMP DP  RH WIND       PRES   REMARKS
Burlington     CLOUDY    74  74 100 SW3       29.92S
Cedar Rapids   NOT AVBL
Des Moines     PTCLDY    71  69  93 N5        29.97S
Kirksville     CLOUDY    75  74  96 NE3       29.96R
Ottumwa        MOCLDY    72  71  97 N6        29.95S
St Louis       TSTM      77  73  87 N5        29.96R
$$


CITY           SKY/WX    TMP DP  RH WIND       PRES   REMARKS
Terre Haute    CLOUDY    74  71  91 W8        29.95S
Evansville     CLOUDY    78  73  84 NW10      29.97R HX  81
Indianapolis   CLOUDY    75  72  90 W8        29.94F
Lafayette      CLOUDY    72  71  97 CALM      29.92F
Madison        CLOUDY    70  70 100 N7        29.94S FOG
Milwaukee      CLOUDY    72  70  93 NE6       29.93S
$$






USA.gov is the U.S. government's official web portal to all federal, state and local government web resources and services.